Voltar ao catálogo

DELTA 1 DEB

AtivoSSO
NORAD 37639·DEBRIS·🇺🇸 United States

Lançado Mar 5, 1978 de Vandenberg Space Force Base

Loading…

Próximas Passagens (próximas 24 horas)

TLE

AtualizadoSource: Space-Track

Época: Sep 13, 2026, 13:03 UTC

1 37639U 78026JA  26256.54426306  .00000108  00000-0  12584-3 0  9994
2 37639  98.9031 162.9281 0115168 160.4974 325.3970 13.84588016722657

Acompanhe DELTA 1 DEB em tempo real com AllMySat

Download on the App Store